Regional Weather Roundup
Issued by NWS

Home | Current Version | Previous Version | Graphics & Text | Print | Product List | Glossary On
Versions: 1 2 3 4 5 6 7 8 9 10 11 12 13 14 15 16 17 18 19 20 21 22 23 24 25 26 27 28 29 30 31 32 33 34 35 36 37 38 39 40 41 42 43 44 45 46 47 48 49 50
000
ASUS43 KTOP 301459
RWRKS

WEATHER ROUNDUP FOR KANSAS
NATIONAL WEATHER SERVICE GOODLAND KS
1000 AM CDT SUN AUG 30 2015

NOTE:  "FAIR" INDICATES FEW OR NO CLOUDS BELOW 12,000 FEET WITH NO
SIGNIFICANT WEATHER AND/OR OBSTRUCTIONS TO VISIBILITY.

KSZ001>006-013>018-027>032-041>047-301600-
NORTHWEST KANSAS

CITY           SKY/WX    TMP DP  RH WIND       PRES   REMARKS
GOODLAND       SUNNY     72  50  45 S13       30.09S
HAYS           SUNNY     66  55  68 SW5       30.06F
HILL CITY      SUNNY     65  59  81 S3        30.05F
RUSSELL        FOG       61  61 100 S7        30.06S VSB 3/4
$$

KSZ061>065-074>080-084>089-301600-
SOUTHWEST KANSAS

CITY           SKY/WX    TMP DP  RH WIND       PRES   REMARKS
DODGE CITY     PTSUNNY   61  61 100 SW5       30.08F FOG
ELKHART          N/A     73  57  57 S7          N/A
GARDEN CITY    SUNNY     69  55  60 S5        30.08S
GREAT BEND     CLOUDY    61  57  88 S3        30.08S
LIBERAL        SUNNY     70  57  64 CALM      30.11R
PRATT          SUNNY     64  61  88 CALM      30.09S
$$

KSZ066>073-081>083-090>101-301600-
SOUTHEAST KANSAS

CITY           SKY/WX    TMP DP  RH WIND       PRES   REMARKS
CHANUTE        CLOUDY    70  69  97 E3        30.04S FOG
COFFEYVILLE    CLOUDY    70  70 100 NE7       30.03R FOG
HUTCHINSON     CLOUDY    65  63  93 NE3       30.09R
NEWTON         CLOUDY    64  61  88 NE3       30.10R
PARSONS        CLOUDY    71  71 100 CALM      30.04R
WICHITA INTL   CLOUDY    68  64  87 N5        30.07R FOG
WICHITA JABRA  CLOUDY    66  65  96 CALM      30.07R FOG
WICHITA MCCONL CLOUDY    66  59  77 NE3       30.06S
$$

KSZ007>012-019>026-033>040-048>060-102>105-301600-
NORTHEAST KANSAS

CITY           SKY/WX    TMP DP  RH WIND       PRES   REMARKS
CONCORDIA      CLOUDY    61  61 100 CALM      30.08S FOG
EMPORIA        CLOUDY    68  67  96 CALM      30.06R FOG
LAWRENCE       CLOUDY    69  68  96 VRB3      30.06R FOG
MANHATTAN      CLOUDY    64  64 100 CALM      30.07S FOG
OLATHE IND     CLOUDY    71  68  90 E6        30.07R FOG
OLATHE EXE     CLOUDY    69  68  96 E5        30.06R FOG
SALINA         CLOUDY    66  63  90 CALM      30.08R
TOPEKA BILLARD FOG       68  68 100 CALM      30.06S VSB 1/2
TOPEKA FORBES  FOG       69  66  90 N3        30.07R VSB 1/2
$$



USA.gov is the U.S. government's official web portal to all federal, state and local government web resources and services.